GEFSNGP_prec_meanprecacc_312.txt.gz
Total_Precipitation_Accumulation
0.08 0.16 0.24 0.26 0.23 0.20 0.17 0.16 0.28 0.32 0.43 0.54 0.71 0.70 0.72 0.69 0.64 0.61 0.72 0.68 0.63 0.62 0.70 0.72 0.77 0.78 0.79 0.82 0.84 1.04 1.56 1.82 1.78 1.70 1.74 1.73 1.72 1.84 1.92 1.97 1.99 2.23 2.39 2.46
0.11 0.15 0.17 0.18 0.21 0.19 0.14 0.13 0.12 0.19 0.36 0.42 0.67 0.83 0.81 0.82 0.78 0.72 0.70 0.66 0.64 0.56 0.66 0.77 0.85 0.88 0.89 0.95 1.01 1.14 1.50 1.79 1.75 1.65 1.63 1.58 1.66 1.80 1.92 2.00 2.17 2.36 2.36 2.34
0.17 0.20 0.18 0.26 0.22 0.18 0.16 0.16 0.17 0.26 0.40 0.43 0.52 0.70 0.80 0.82 0.78 0.70 0.71 0.64 0.65 0.68 0.76 0.96 0.91 0.94 1.02 0.96 1.02 1.20 1.55 1.80 1.82 1.73 1.69 1.66 1.62 1.80 2.00 2.22 2.42 2.50 2.44 2.38
0.22 0.26 0.38 0.29 0.22 0.23 0.26 0.30 0.31 0.34 0.38 0.42 0.56 0.64 0.78 0.95 0.82 0.68 0.70 0.73 0.81 0.79 0.84 0.93 0.93 0.99 1.06 1.08 1.12 1.28 1.56 1.77 1.84 1.82 1.86 1.95 1.96 2.03 2.23 2.48 2.66 2.67 2.62 2.51
0.32 0.36 0.42 0.39 0.31 0.35 0.40 0.46 0.48 0.50 0.44 0.50 0.58 0.70 0.87 0.82 0.80 0.85 0.86 0.85 0.90 0.99 1.02 1.11 1.11 1.07 1.14 1.30 1.35 1.41 1.48 1.72 1.90 1.98 2.08 2.09 2.14 2.40 2.60 2.77 2.80 2.74 2.82 2.73
0.45 0.54 0.61 0.60 0.44 0.38 0.47 0.80 0.63 0.65 0.63 0.57 0.62 0.90 1.05 0.87 0.79 0.78 0.90 1.00 1.00 1.07 1.13 1.15 1.20 1.27 1.34 1.47 1.63 1.75 1.85 2.01 2.29 2.47 2.61 2.67 2.74 2.80 2.86 2.96 2.92 2.92 2.84 2.80
0.67 0.80 0.74 0.58 0.51 0.46 0.88 1.21 0.89 0.86 0.84 0.74 0.87 0.99 1.00 0.86 0.80 0.76 0.80 0.94 1.03 1.06 1.17 1.26 1.27 1.42 1.70 1.84 1.94 2.12 2.29 2.38 2.63 2.98 3.16 3.11 3.13 3.01 2.94 2.93 2.95 2.94 2.83 2.73
0.90 1.15 1.22 0.68 0.62 0.98 1.23 1.04 1.05 1.07 1.05 0.98 0.96 1.02 1.03 1.00 0.85 0.81 0.82 0.89 1.00 1.09 1.18 1.37 1.63 1.83 2.11 2.29 2.36 2.45 2.60 2.90 3.13 3.31 3.13 3.04 3.20 3.08 3.08 3.14 3.12 3.02 2.92 2.81
1.18 1.40 1.19 0.84 0.95 1.13 1.12 1.10 1.14 1.12 1.07 0.97 0.93 1.09 1.05 0.99 0.97 0.86 0.84 0.89 0.99 1.09 1.27 1.48 1.78 2.17 2.43 2.52 2.73 2.74 2.80 3.01 3.07 3.13 3.24 3.37 3.43 3.30 3.22 3.21 3.14 2.95 2.85 2.66
1.47 1.54 1.30 1.14 1.12 1.08 1.11 1.13 1.10 1.03 0.98 1.00 0.97 0.98 1.00 0.96 0.93 0.88 0.89 0.98 1.03 1.15 1.35 1.65 1.96 2.30 2.46 2.52 2.57 2.61 2.65 2.69 2.80 2.98 3.11 3.22 3.44 3.43 3.30 3.12 3.01 2.93 2.88 2.73
1.97 2.04 1.89 1.74 1.49 1.31 1.26 1.19 1.23 1.19 1.10 1.08 1.04 0.99 0.93 0.94 0.93 0.93 0.93 1.06 1.17 1.28 1.39 1.54 1.80 2.07 2.20 2.38 2.50 2.67 2.72 2.65 2.57 2.61 2.75 2.89 3.01 3.10 3.03 2.99 2.83 2.70 2.55 2.48
2.27 2.00 1.97 2.12 1.85 1.61 1.55 1.53 1.53 1.49 1.43 1.31 1.22 1.16 1.06 1.01 0.95 0.92 0.93 1.03 1.17 1.31 1.47 1.63 1.79 1.98 2.09 2.29 2.45 2.61 2.64 2.54 2.50 2.47 2.54 2.60 2.61 2.58 2.45 2.35 2.20 2.02 1.95 1.87
1.91 1.82 1.80 1.97 1.89 1.80 1.86 2.00 2.01 1.87 1.64 1.37 1.24 1.20 1.13 1.00 0.94 0.95 1.02 1.15 1.32 1.39 1.52 1.71 1.80 1.91 2.08 2.27 2.42 2.55 2.52 2.40 2.29 2.19 2.21 2.21 2.25 2.41 2.46 2.24 2.04 1.81 1.69 1.54
1.80 2.02 2.24 2.24 2.20 2.04 2.03 2.14 2.14 1.90 1.76 1.59 1.39 1.31 1.22 1.12 1.03 1.00 1.04 1.17 1.29 1.38 1.39 1.50 1.66 1.76 1.94 2.15 2.28 2.37 2.37 2.38 2.28 2.17 2.16 2.15 2.23 2.32 2.45 2.43 2.14 1.76 1.64 1.54
2.04 2.00 2.19 2.30 2.18 2.18 2.13 2.13 2.19 2.05 1.82 1.80 1.70 1.51 1.41 1.39 1.38 1.32 1.26 1.27 1.39 1.47 1.50 1.52 1.64 1.74 1.91 2.18 2.23 2.21 2.20 2.17 2.13 2.18 2.15 2.14 2.27 2.31 2.29 2.33 2.17 1.94 1.69 1.48
2.41 2.15 2.20 2.30 2.18 2.08 2.02 1.97 1.97 1.92 1.78 1.71 1.70 1.65 1.49 1.45 1.48 1.48 1.50 1.56 1.73 1.77 1.76 1.77 1.79 1.83 2.06 2.31 2.32 2.22 2.11 2.04 1.94 1.93 1.91 1.88 1.92 2.03 2.07 2.17 2.12 2.01 1.86 1.57
2.45 2.46 2.43 2.24 2.08 1.99 1.87 1.75 1.70 1.67 1.74 1.75 1.60 1.56 1.47 1.36 1.36 1.46 1.58 1.65 1.75 1.73 1.70 1.75 1.77 1.84 2.06 2.27 2.31 2.24 2.04 1.86 1.62 1.50 1.56 1.66 1.78 1.90 1.92 1.96 2.04 2.00 1.79 1.55
2.13 2.17 2.19 2.02 1.90 1.84 1.76 1.62 1.50 1.44 1.52 1.55 1.41 1.38 1.38 1.42 1.50 1.59 1.74 1.77 1.78 1.72 1.61 1.55 1.56 1.70 1.92 1.99 1.99 2.01 1.91 1.75 1.55 1.42 1.46 1.55 1.67 1.85 1.91 1.86 1.83 1.82 1.72 1.52
1.95 1.90 1.89 1.74 1.65 1.61 1.54 1.44 1.44 1.40 1.38 1.46 1.43 1.37 1.40 1.49 1.64 1.74 1.79 1.95 2.01 1.85 1.64 1.49 1.51 1.54 1.69 1.74 1.78 1.86 1.81 1.74 1.62 1.54 1.59 1.64 1.68 1.74 1.75 1.72 1.67 1.61 1.55 1.46
2.01 1.88 1.87 1.74 1.60 1.55 1.48 1.39 1.32 1.31 1.37 1.43 1.47 1.51 1.61 1.66 1.81 1.96 2.02 2.08 2.10 1.96 1.67 1.49 1.41 1.43 1.49 1.54 1.61 1.57 1.61 1.66 1.60 1.54 1.56 1.61 1.59 1.63 1.59 1.58 1.54 1.48 1.42 1.41
2.01 1.98 1.92 1.85 1.72 1.56 1.47 1.42 1.38 1.34 1.35 1.43 1.54 1.61 1.74 1.84 1.94 2.11 2.33 2.31 2.10 1.93 1.69 1.49 1.34 1.31 1.30 1.39 1.48 1.47 1.50 1.58 1.60 1.61 1.60 1.60 1.62 1.66 1.59 1.53 1.50 1.49 1.47 1.45
1.81 1.85 1.81 1.71 1.63 1.55 1.46 1.45 1.43 1.41 1.42 1.49 1.57 1.66 1.80 1.87 1.98 2.10 2.16 2.32 2.17 2.04 1.66 1.39 1.25 1.21 1.21 1.29 1.26 1.38 1.41 1.44 1.48 1.51 1.52 1.52 1.53 1.57 1.57 1.48 1.42 1.34 1.33 1.34
1.64 1.65 1.68 1.67 1.62 1.58 1.50 1.49 1.51 1.51 1.59 1.70 1.74 1.83 1.92 1.90 1.99 2.35 2.43 2.17 2.03 1.90 1.51 1.34 1.33 1.27 1.24 1.17 1.19 1.28 1.32 1.36 1.38 1.30 1.24 1.28 1.33 1.41 1.46 1.42 1.40 1.33 1.29 1.31
1.64 1.55 1.59 1.56 1.50 1.55 1.55 1.50 1.56 1.70 1.75 1.79 1.75 1.78 1.91 1.93 1.88 1.95 2.18 2.22 2.04 1.81 1.48 1.44 1.37 1.27 1.22 1.15 1.28 1.35 1.35 1.35 1.33 1.21 1.09 1.11 1.18 1.29 1.38 1.43 1.43 1.37 1.32 1.30
1.63 1.48 1.39 1.43 1.54 1.65 1.68 1.69 1.77 1.83 1.79 1.75 1.63 1.63 1.79 1.94 2.01 1.94 1.87 1.88 1.94 1.75 1.54 1.49 1.39 1.32 1.14 1.09 1.25 1.39 1.43 1.44 1.35 1.23 1.15 1.20 1.23 1.28 1.31 1.34 1.33 1.28 1.27 1.27
1.67 1.53 1.47 1.40 1.48 1.60 1.70 1.82 1.95 1.94 1.89 1.92 1.75 1.60 1.71 1.78 1.72 1.71 1.70 1.70 1.71 1.71 1.55 1.48 1.38 1.33 1.22 1.18 1.25 1.38 1.51 1.59 1.44 1.29 1.25 1.32 1.32 1.29 1.29 1.25 1.24 1.24 1.20 1.16
1.59 1.55 1.55 1.50 1.56 1.61 1.72 1.86 2.05 2.11 2.06 2.05 1.92 1.76 1.70 1.62 1.49 1.49 1.51 1.59 1.61 1.62 1.60 1.56 1.45 1.34 1.26 1.24 1.27 1.31 1.41 1.48 1.44 1.38 1.33 1.36 1.38 1.39 1.31 1.23 1.19 1.18 1.18 1.13

GEFSNGP_prec_meanprecacc_318.txt.gz
Total_Precipitation_Accumulation
0.08 0.16 0.24 0.26 0.23 0.20 0.17 0.16 0.28 0.32 0.43 0.54 0.71 0.70 0.72 0.70 0.64 0.61 0.72 0.68 0.63 0.63 0.70 0.72 0.77 0.78 0.79 0.82 0.84 1.04 1.56 1.83 1.79 1.71 1.75 1.74 1.74 1.86 1.94 1.99 2.01 2.26 2.41 2.49
0.11 0.15 0.17 0.18 0.21 0.19 0.14 0.13 0.12 0.19 0.36 0.42 0.67 0.84 0.81 0.82 0.79 0.72 0.71 0.67 0.65 0.57 0.66 0.77 0.85 0.88 0.89 0.95 1.01 1.14 1.50 1.79 1.76 1.66 1.64 1.59 1.67 1.81 1.94 2.02 2.19 2.38 2.38 2.38
0.17 0.20 0.19 0.26 0.22 0.18 0.16 0.16 0.17 0.27 0.41 0.43 0.52 0.70 0.80 0.82 0.78 0.71 0.72 0.65 0.65 0.69 0.77 0.96 0.91 0.94 1.02 0.96 1.02 1.20 1.56 1.81 1.83 1.74 1.70 1.67 1.63 1.81 2.01 2.24 2.43 2.52 2.46 2.40
0.22 0.26 0.38 0.29 0.22 0.23 0.26 0.30 0.31 0.34 0.38 0.42 0.56 0.64 0.78 0.95 0.82 0.68 0.71 0.73 0.81 0.79 0.84 0.93 0.93 0.99 1.06 1.08 1.12 1.28 1.57 1.79 1.87 1.85 1.88 1.96 1.98 2.05 2.24 2.50 2.68 2.69 2.65 2.53
0.32 0.36 0.42 0.39 0.31 0.35 0.40 0.46 0.48 0.50 0.44 0.50 0.58 0.70 0.87 0.82 0.81 0.85 0.86 0.86 0.91 0.99 1.03 1.12 1.11 1.07 1.15 1.30 1.36 1.42 1.49 1.73 1.93 2.05 2.12 2.10 2.15 2.42 2.62 2.79 2.82 2.77 2.85 2.76
0.45 0.54 0.61 0.60 0.44 0.38 0.47 0.80 0.63 0.65 0.63 0.57 0.62 0.90 1.05 0.87 0.79 0.79 0.90 1.01 1.01 1.07 1.13 1.16 1.21 1.28 1.35 1.47 1.63 1.76 1.86 2.02 2.31 2.52 2.65 2.68 2.76 2.82 2.89 2.99 2.94 2.95 2.87 2.82
0.67 0.80 0.74 0.58 0.51 0.46 0.88 1.22 0.89 0.86 0.84 0.75 0.87 0.99 1.00 0.87 0.81 0.77 0.80 0.95 1.04 1.07 1.17 1.27 1.28 1.43 1.71 1.85 1.95 2.13 2.30 2.38 2.64 2.99 3.17 3.13 3.15 3.04 2.96 2.96 2.97 2.97 2.85 2.75
0.90 1.15 1.22 0.68 0.62 0.98 1.23 1.04 1.05 1.07 1.05 0.98 0.97 1.02 1.03 1.00 0.86 0.81 0.83 0.89 1.01 1.10 1.18 1.38 1.64 1.84 2.12 2.30 2.37 2.45 2.61 2.91 3.14 3.31 3.14 3.05 3.21 3.10 3.11 3.17 3.14 3.04 2.94 2.83
1.18 1.40 1.20 0.84 0.95 1.13 1.12 1.10 1.14 1.12 1.07 0.97 0.93 1.09 1.05 0.99 0.98 0.87 0.84 0.89 0.99 1.10 1.28 1.48 1.79 2.19 2.44 2.53 2.74 2.75 2.81 3.01 3.08 3.14 3.25 3.38 3.44 3.31 3.24 3.23 3.16 2.98 2.87 2.68
1.48 1.54 1.30 1.14 1.12 1.08 1.11 1.14 1.10 1.03 0.99 1.00 0.97 0.99 1.00 0.96 0.94 0.90 0.91 0.99 1.04 1.15 1.36 1.66 1.97 2.31 2.47 2.54 2.59 2.62 2.66 2.70 2.81 2.99 3.12 3.23 3.45 3.45 3.32 3.14 3.04 2.95 2.90 2.76
1.97 2.04 1.89 1.74 1.49 1.31 1.26 1.19 1.23 1.19 1.11 1.08 1.04 0.99 0.95 0.96 0.95 0.95 0.96 1.07 1.17 1.28 1.39 1.55 1.80 2.08 2.21 2.39 2.51 2.68 2.73 2.66 2.58 2.62 2.75 2.90 3.02 3.11 3.05 3.00 2.86 2.73 2.57 2.51
2.27 2.00 1.97 2.12 1.85 1.61 1.55 1.53 1.53 1.49 1.43 1.31 1.23 1.17 1.09 1.04 0.97 0.94 0.95 1.04 1.17 1.31 1.47 1.63 1.80 1.99 2.10 2.30 2.47 2.63 2.65 2.54 2.51 2.47 2.55 2.61 2.62 2.59 2.46 2.36 2.22 2.05 1.98 1.91
1.91 1.82 1.80 1.97 1.89 1.80 1.86 2.00 2.02 1.88 1.65 1.37 1.25 1.21 1.14 1.02 0.96 0.96 1.03 1.16 1.32 1.40 1.53 1.72 1.81 1.93 2.09 2.28 2.44 2.58 2.55 2.42 2.29 2.19 2.21 2.21 2.26 2.42 2.48 2.26 2.06 1.84 1.73 1.61
1.80 2.02 2.24 2.24 2.20 2.04 2.03 2.14 2.14 1.91 1.77 1.59 1.39 1.32 1.23 1.12 1.03 1.01 1.05 1.17 1.29 1.38 1.40 1.51 1.67 1.77 1.96 2.16 2.30 2.40 2.40 2.42 2.30 2.18 2.16 2.16 2.24 2.34 2.48 2.46 2.17 1.80 1.70 1.61
2.04 2.00 2.19 2.30 2.18 2.18 2.13 2.13 2.19 2.06 1.83 1.81 1.70 1.51 1.41 1.40 1.38 1.33 1.27 1.28 1.39 1.47 1.50 1.53 1.65 1.76 1.94 2.22 2.29 2.26 2.23 2.19 2.15 2.20 2.17 2.16 2.29 2.34 2.33 2.38 2.23 2.00 1.74 1.53
2.41 2.16 2.20 2.30 2.18 2.08 2.02 1.98 1.97 1.93 1.79 1.72 1.71 1.66 1.50 1.46 1.49 1.49 1.51 1.57 1.74 1.78 1.76 1.77 1.80 1.85 2.10 2.38 2.39 2.28 2.16 2.09 1.98 1.95 1.94 1.91 1.97 2.08 2.12 2.24 2.20 2.09 1.91 1.63
2.46 2.47 2.44 2.24 2.08 2.00 1.88 1.75 1.70 1.68 1.75 1.75 1.61 1.56 1.48 1.36 1.37 1.47 1.59 1.66 1.76 1.74 1.71 1.76 1.78 1.86 2.11 2.34 2.39 2.30 2.09 1.91 1.67 1.54 1.59 1.70 1.83 1.96 1.99 2.04 2.13 2.07 1.85 1.60
2.13 2.17 2.19 2.02 1.91 1.84 1.77 1.63 1.51 1.45 1.53 1.55 1.42 1.39 1.39 1.43 1.51 1.60 1.75 1.78 1.78 1.73 1.62 1.56 1.56 1.71 1.94 2.02 2.04 2.06 1.95 1.78 1.57 1.45 1.49 1.59 1.71 1.90 1.98 1.93 1.91 1.88 1.76 1.56
1.96 1.90 1.90 1.75 1.67 1.62 1.55 1.46 1.45 1.41 1.38 1.47 1.44 1.38 1.41 1.50 1.65 1.75 1.80 1.97 2.02 1.86 1.64 1.49 1.52 1.55 1.71 1.76 1.80 1.89 1.85 1.77 1.64 1.55 1.62 1.67 1.72 1.79 1.80 1.78 1.73 1.66 1.59 1.49
2.02 1.89 1.88 1.75 1.61 1.57 1.50 1.41 1.34 1.33 1.38 1.44 1.49 1.52 1.62 1.68 1.82 1.96 2.03 2.09 2.12 1.97 1.68 1.51 1.43 1.45 1.51 1.56 1.64 1.59 1.64 1.68 1.63 1.56 1.58 1.63 1.62 1.66 1.62 1.61 1.57 1.51 1.44 1.43
2.02 1.99 1.94 1.87 1.74 1.59 1.51 1.47 1.42 1.39 1.38 1.45 1.57 1.64 1.77 1.86 1.96 2.13 2.34 2.32 2.11 1.95 1.71 1.52 1.36 1.33 1.33 1.43 1.51 1.49 1.53 1.60 1.62 1.63 1.62 1.62 1.65 1.68 1.61 1.55 1.52 1.51 1.49 1.47
1.82 1.87 1.84 1.75 1.67 1.59 1.51 1.50 1.47 1.45 1.45 1.53 1.60 1.69 1.82 1.89 2.00 2.12 2.18 2.34 2.19 2.06 1.69 1.42 1.28 1.24 1.24 1.31 1.28 1.39 1.43 1.46 1.51 1.53 1.54 1.55 1.55 1.59 1.59 1.51 1.45 1.37 1.35 1.36
1.66 1.68 1.73 1.72 1.67 1.63 1.55 1.53 1.55 1.54 1.61 1.72 1.76 1.85 1.94 1.92 2.01 2.37 2.45 2.19 2.05 1.93 1.54 1.37 1.36 1.30 1.27 1.19 1.21 1.29 1.33 1.38 1.40 1.32 1.27 1.30 1.35 1.43 1.48 1.44 1.43 1.35 1.31 1.33
1.67 1.59 1.63 1.60 1.54 1.59 1.59 1.54 1.60 1.73 1.78 1.81 1.77 1.81 1.94 1.96 1.91 1.98 2.21 2.25 2.07 1.84 1.52 1.47 1.40 1.29 1.24 1.17 1.30 1.37 1.36 1.36 1.35 1.22 1.11 1.13 1.20 1.31 1.40 1.45 1.45 1.40 1.34 1.32
1.66 1.53 1.43 1.46 1.57 1.68 1.70 1.71 1.80 1.86 1.81 1.78 1.66 1.66 1.83 1.98 2.05 1.97 1.90 1.91 1.98 1.79 1.59 1.53 1.43 1.35 1.16 1.10 1.26 1.40 1.43 1.45 1.36 1.25 1.17 1.22 1.25 1.30 1.33 1.35 1.36 1.31 1.30 1.29
1.70 1.57 1.50 1.43 1.51 1.63 1.72 1.85 1.98 1.97 1.93 1.95 1.78 1.63 1.74 1.81 1.75 1.74 1.74 1.73 1.75 1.76 1.59 1.52 1.40 1.35 1.23 1.19 1.26 1.38 1.52 1.59 1.45 1.30 1.27 1.34 1.34 1.31 1.31 1.28 1.27 1.27 1.23 1.18
1.61 1.57 1.57 1.51 1.57 1.63 1.73 1.88 2.06 2.12 2.08 2.08 1.94 1.78 1.72 1.64 1.52 1.52 1.54 1.63 1.65 1.65 1.63 1.59 1.46 1.35 1.27 1.25 1.27 1.32 1.42 1.49 1.45 1.39 1.35 1.38 1.40 1.40 1.33 1.25 1.22 1.20 1.20 1.15

GEFSNGP_prec_meanprecacc_324.txt.gz
Total_Precipitation_Accumulation
0.08 0.16 0.24 0.26 0.23 0.20 0.17 0.16 0.28 0.34 0.47 0.55 0.71 0.71 0.73 0.70 0.64 0.62 0.72 0.69 0.64 0.64 0.72 0.74 0.79 0.80 0.80 0.82 0.85 1.05 1.57 1.84 1.80 1.73 1.77 1.75 1.75 1.87 1.95 2.00 2.04 2.28 2.43 2.51
0.11 0.15 0.17 0.18 0.21 0.19 0.14 0.13 0.12 0.19 0.37 0.42 0.67 0.84 0.82 0.82 0.79 0.72 0.71 0.67 0.65 0.58 0.67 0.79 0.87 0.89 0.90 0.96 1.01 1.14 1.52 1.82 1.79 1.69 1.66 1.60 1.68 1.82 1.95 2.03 2.21 2.40 2.40 2.39
0.17 0.20 0.19 0.26 0.22 0.18 0.17 0.16 0.17 0.27 0.41 0.43 0.53 0.70 0.80 0.82 0.78 0.71 0.72 0.65 0.66 0.70 0.78 0.98 0.92 0.94 1.02 0.96 1.02 1.21 1.58 1.83 1.87 1.77 1.72 1.70 1.64 1.82 2.02 2.25 2.44 2.54 2.48 2.42
0.22 0.26 0.38 0.30 0.22 0.23 0.26 0.30 0.31 0.34 0.38 0.42 0.56 0.64 0.78 0.95 0.82 0.68 0.71 0.73 0.81 0.80 0.86 0.94 0.93 0.99 1.06 1.08 1.13 1.30 1.60 1.84 1.92 1.89 1.90 1.98 1.99 2.07 2.26 2.51 2.69 2.71 2.66 2.55
0.32 0.36 0.43 0.39 0.31 0.35 0.40 0.46 0.48 0.50 0.44 0.50 0.58 0.70 0.87 0.82 0.81 0.85 0.86 0.86 0.91 1.00 1.05 1.13 1.12 1.08 1.16 1.31 1.37 1.44 1.53 1.80 2.00 2.08 2.14 2.12 2.17 2.43 2.64 2.81 2.84 2.80 2.87 2.77
0.45 0.54 0.62 0.60 0.44 0.38 0.47 0.81 0.63 0.65 0.63 0.57 0.62 0.91 1.06 0.88 0.79 0.79 0.91 1.01 1.01 1.08 1.14 1.17 1.22 1.30 1.36 1.49 1.65 1.78 1.88 2.04 2.32 2.53 2.67 2.70 2.77 2.84 2.91 3.01 2.97 2.98 2.89 2.83
0.67 0.80 0.75 0.58 0.51 0.46 0.88 1.23 0.90 0.86 0.84 0.75 0.87 1.00 1.01 0.87 0.81 0.77 0.81 0.95 1.04 1.07 1.18 1.28 1.30 1.45 1.73 1.87 1.96 2.14 2.31 2.39 2.65 3.00 3.19 3.14 3.17 3.07 2.99 2.98 3.00 3.00 2.88 2.78
0.91 1.16 1.23 0.68 0.62 0.98 1.23 1.04 1.05 1.07 1.05 0.98 0.97 1.02 1.04 1.00 0.86 0.82 0.83 0.89 1.01 1.10 1.19 1.39 1.65 1.85 2.14 2.32 2.38 2.46 2.62 2.92 3.16 3.33 3.16 3.06 3.24 3.14 3.14 3.20 3.17 3.07 2.97 2.86
1.18 1.41 1.20 0.84 0.95 1.13 1.12 1.10 1.14 1.12 1.07 0.97 0.93 1.10 1.05 0.99 0.99 0.88 0.85 0.90 1.00 1.10 1.29 1.49 1.80 2.20 2.46 2.54 2.74 2.75 2.82 3.03 3.10 3.16 3.26 3.39 3.46 3.34 3.27 3.26 3.19 3.01 2.91 2.72
1.48 1.54 1.30 1.14 1.13 1.08 1.11 1.14 1.10 1.03 0.99 1.00 0.97 0.99 1.01 0.98 0.98 0.93 0.92 1.00 1.05 1.17 1.38 1.67 1.98 2.33 2.50 2.56 2.60 2.63 2.67 2.72 2.84 3.02 3.15 3.26 3.48 3.47 3.34 3.16 3.06 2.97 2.93 2.80
1.98 2.04 1.89 1.74 1.49 1.31 1.26 1.19 1.23 1.19 1.11 1.08 1.05 1.01 0.97 1.00 0.99 0.99 0.98 1.09 1.19 1.30 1.42 1.57 1.82 2.11 2.23 2.40 2.53 2.70 2.74 2.67 2.60 2.64 2.77 2.92 3.05 3.13 3.06 3.02 2.87 2.75 2.59 2.54
2.27 2.01 1.98 2.13 1.86 1.61 1.55 1.53 1.53 1.49 1.44 1.32 1.24 1.18 1.11 1.07 1.00 0.97 0.97 1.06 1.19 1.33 1.50 1.66 1.82 2.01 2.12 2.31 2.48 2.66 2.67 2.56 2.52 2.49 2.56 2.62 2.63 2.61 2.48 2.37 2.23 2.06 2.00 1.93
1.92 1.82 1.80 1.97 1.90 1.80 1.86 2.00 2.02 1.88 1.65 1.38 1.25 1.22 1.16 1.04 0.98 0.98 1.05 1.17 1.34 1.42 1.56 1.74 1.83 1.94 2.10 2.29 2.45 2.60 2.58 2.43 2.30 2.20 2.22 2.22 2.27 2.44 2.50 2.28 2.08 1.86 1.75 1.63
1.81 2.03 2.25 2.25 2.20 2.04 2.04 2.14 2.14 1.91 1.77 1.59 1.40 1.32 1.23 1.13 1.04 1.02 1.06 1.19 1.31 1.40 1.42 1.53 1.68 1.78 1.96 2.18 2.31 2.42 2.42 2.43 2.32 2.20 2.18 2.18 2.25 2.35 2.49 2.48 2.20 1.83 1.74 1.65
2.04 2.00 2.20 2.30 2.18 2.18 2.14 2.14 2.19 2.06 1.83 1.81 1.71 1.52 1.42 1.41 1.39 1.33 1.28 1.30 1.41 1.49 1.52 1.54 1.67 1.77 1.95 2.24 2.31 2.29 2.25 2.22 2.18 2.23 2.20 2.19 2.32 2.36 2.36 2.40 2.27 2.06 1.80 1.58
2.41 2.16 2.20 2.31 2.19 2.09 2.03 1.98 1.98 1.93 1.79 1.72 1.71 1.66 1.50 1.46 1.50 1.49 1.52 1.58 1.76 1.80 1.78 1.79 1.82 1.87 2.13 2.42 2.42 2.32 2.20 2.12 2.00 1.98 1.97 1.95 2.01 2.11 2.15 2.27 2.25 2.16 1.99 1.69
2.46 2.47 2.44 2.25 2.09 2.01 1.88 1.76 1.71 1.69 1.75 1.76 1.61 1.57 1.48 1.37 1.38 1.48 1.60 1.68 1.79 1.76 1.72 1.78 1.81 1.89 2.14 2.37 2.42 2.34 2.14 1.97 1.72 1.57 1.62 1.73 1.87 1.99 2.02 2.08 2.18 2.13 1.92 1.68
2.14 2.18 2.20 2.03 1.92 1.85 1.77 1.64 1.52 1.46 1.53 1.56 1.43 1.39 1.40 1.44 1.53 1.62 1.76 1.80 1.81 1.74 1.63 1.57 1.58 1.73 1.97 2.05 2.06 2.09 2.01 1.86 1.64 1.49 1.53 1.62 1.74 1.93 2.01 1.96 1.94 1.93 1.82 1.62
1.96 1.91 1.91 1.76 1.68 1.63 1.56 1.47 1.46 1.42 1.39 1.48 1.46 1.40 1.43 1.52 1.67 1.77 1.82 1.99 2.04 1.88 1.66 1.51 1.53 1.57 1.73 1.78 1.82 1.92 1.89 1.82 1.70 1.61 1.67 1.73 1.76 1.81 1.82 1.80 1.75 1.68 1.62 1.52
2.03 1.90 1.89 1.77 1.63 1.59 1.52 1.44 1.37 1.36 1.41 1.47 1.51 1.55 1.65 1.71 1.86 2.00 2.06 2.12 2.14 1.99 1.70 1.53 1.44 1.47 1.53 1.58 1.65 1.62 1.67 1.70 1.66 1.61 1.64 1.69 1.66 1.69 1.64 1.62 1.59 1.53 1.47 1.45
2.04 2.01 1.95 1.89 1.77 1.62 1.55 1.51 1.47 1.43 1.42 1.48 1.60 1.67 1.80 1.90 2.00 2.18 2.39 2.35 2.14 1.97 1.72 1.53 1.38 1.35 1.35 1.44 1.53 1.51 1.55 1.62 1.64 1.65 1.65 1.66 1.68 1.71 1.64 1.56 1.54 1.52 1.51 1.49
1.84 1.88 1.86 1.77 1.69 1.62 1.54 1.54 1.52 1.49 1.49 1.56 1.63 1.72 1.85 1.93 2.03 2.16 2.22 2.37 2.21 2.07 1.70 1.43 1.29 1.25 1.26 1.33 1.29 1.41 1.45 1.49 1.53 1.55 1.56 1.57 1.58 1.62 1.62 1.54 1.47 1.39 1.37 1.38
1.68 1.70 1.75 1.74 1.69 1.65 1.57 1.55 1.58 1.58 1.65 1.76 1.79 1.88 1.97 1.95 2.03 2.40 2.49 2.22 2.06 1.93 1.55 1.38 1.37 1.31 1.28 1.21 1.22 1.31 1.36 1.41 1.43 1.35 1.30 1.33 1.38 1.45 1.51 1.47 1.46 1.38 1.33 1.35
1.69 1.61 1.65 1.63 1.57 1.61 1.62 1.57 1.64 1.77 1.81 1.84 1.80 1.84 1.97 1.99 1.94 2.00 2.24 2.27 2.08 1.85 1.53 1.48 1.40 1.29 1.25 1.18 1.32 1.38 1.37 1.38 1.37 1.25 1.15 1.17 1.24 1.34 1.42 1.48 1.49 1.43 1.36 1.34
1.69 1.55 1.45 1.49 1.59 1.70 1.73 1.74 1.83 1.89 1.83 1.80 1.68 1.68 1.86 2.03 2.09 2.00 1.92 1.93 1.99 1.81 1.60 1.55 1.44 1.36 1.18 1.12 1.28 1.42 1.45 1.46 1.37 1.26 1.19 1.25 1.29 1.33 1.35 1.38 1.39 1.34 1.33 1.31
1.73 1.60 1.53 1.45 1.53 1.65 1.74 1.87 2.00 1.99 1.96 1.98 1.80 1.65 1.76 1.84 1.78 1.76 1.76 1.76 1.77 1.77 1.61 1.53 1.41 1.37 1.26 1.22 1.29 1.41 1.55 1.62 1.48 1.33 1.30 1.38 1.36 1.33 1.32 1.30 1.30 1.29 1.25 1.20
1.63 1.60 1.60 1.55 1.59 1.64 1.75 1.89 2.08 2.14 2.09 2.09 1.96 1.80 1.74 1.66 1.55 1.54 1.56 1.65 1.67 1.67 1.65 1.61 1.48 1.37 1.29 1.27 1.30 1.34 1.45 1.51 1.48 1.41 1.37 1.40 1.42 1.42 1.34 1.27 1.23 1.21 1.21 1.16

GEFSNGP_prec_meanprecacc_330.txt.gz
Total_Precipitation_Accumulation
0.08 0.17 0.25 0.26 0.23 0.20 0.17 0.16 0.29 0.34 0.48 0.56 0.72 0.72 0.75 0.74 0.67 0.64 0.73 0.70 0.64 0.64 0.73 0.74 0.80 0.81 0.81 0.83 0.85 1.06 1.61 1.94 1.93 1.80 1.79 1.76 1.75 1.88 1.95 2.01 2.04 2.28 2.44 2.51
0.11 0.15 0.17 0.18 0.21 0.20 0.15 0.13 0.13 0.20 0.39 0.44 0.71 0.85 0.83 0.84 0.80 0.74 0.72 0.68 0.66 0.58 0.68 0.80 0.88 0.91 0.91 0.97 1.02 1.16 1.54 1.86 1.86 1.75 1.68 1.62 1.69 1.83 1.95 2.04 2.22 2.41 2.40 2.40
0.17 0.20 0.19 0.26 0.22 0.19 0.18 0.17 0.17 0.28 0.42 0.45 0.55 0.70 0.81 0.83 0.80 0.73 0.74 0.67 0.67 0.71 0.79 0.99 0.93 0.96 1.04 0.98 1.04 1.23 1.60 1.87 1.93 1.84 1.77 1.74 1.67 1.84 2.03 2.25 2.45 2.54 2.48 2.43
0.22 0.27 0.39 0.31 0.23 0.23 0.27 0.31 0.32 0.35 0.39 0.44 0.57 0.65 0.79 0.96 0.83 0.69 0.72 0.74 0.83 0.82 0.88 0.97 0.95 1.01 1.07 1.10 1.14 1.32 1.62 1.87 2.00 1.95 1.93 2.00 2.01 2.07 2.27 2.52 2.70 2.71 2.67 2.56
0.32 0.37 0.44 0.40 0.32 0.36 0.40 0.47 0.49 0.51 0.46 0.52 0.60 0.72 0.88 0.83 0.81 0.86 0.88 0.88 0.94 1.03 1.07 1.16 1.16 1.11 1.18 1.34 1.40 1.46 1.55 1.82 2.03 2.10 2.15 2.13 2.17 2.44 2.65 2.82 2.85 2.81 2.88 2.79
0.46 0.55 0.62 0.61 0.45 0.39 0.47 0.82 0.64 0.66 0.65 0.59 0.63 0.93 1.07 0.89 0.80 0.81 0.93 1.04 1.04 1.11 1.18 1.22 1.25 1.32 1.39 1.52 1.69 1.81 1.90 2.05 2.34 2.54 2.68 2.71 2.78 2.85 2.92 3.02 2.97 2.99 2.90 2.84
0.67 0.80 0.75 0.59 0.51 0.46 0.89 1.23 0.90 0.87 0.85 0.75 0.88 1.01 1.01 0.88 0.83 0.80 0.84 0.98 1.07 1.12 1.22 1.29 1.32 1.47 1.75 1.89 1.99 2.17 2.33 2.41 2.67 3.02 3.21 3.16 3.19 3.08 3.00 2.99 3.01 3.01 2.89 2.78
0.91 1.16 1.24 0.69 0.62 0.98 1.24 1.04 1.06 1.08 1.06 0.99 0.97 1.03 1.04 1.01 0.88 0.84 0.86 0.93 1.05 1.13 1.21 1.40 1.66 1.86 2.15 2.33 2.39 2.47 2.64 2.94 3.18 3.36 3.18 3.08 3.27 3.15 3.16 3.21 3.19 3.08 2.98 2.87
1.18 1.41 1.21 0.84 0.96 1.14 1.13 1.11 1.14 1.13 1.08 0.97 0.94 1.10 1.05 1.00 1.00 0.91 0.90 0.93 1.02 1.11 1.30 1.51 1.82 2.21 2.46 2.55 2.75 2.76 2.82 3.04 3.12 3.18 3.29 3.42 3.50 3.37 3.31 3.29 3.22 3.03 2.92 2.74
1.48 1.55 1.31 1.15 1.14 1.10 1.12 1.14 1.10 1.04 1.00 1.00 0.98 1.00 1.02 0.99 1.00 0.97 0.95 1.02 1.06 1.18 1.39 1.69 2.00 2.35 2.51 2.57 2.62 2.65 2.68 2.72 2.84 3.02 3.16 3.28 3.51 3.52 3.38 3.19 3.09 3.00 2.95 2.82
1.99 2.07 1.91 1.75 1.50 1.32 1.27 1.20 1.24 1.20 1.12 1.09 1.05 1.01 0.99 1.01 1.01 1.00 0.99 1.10 1.21 1.32 1.43 1.59 1.87 2.16 2.29 2.45 2.56 2.73 2.77 2.69 2.61 2.65 2.78 2.93 3.06 3.15 3.08 3.05 2.93 2.80 2.62 2.56
2.30 2.04 2.02 2.16 1.87 1.63 1.56 1.55 1.54 1.50 1.45 1.33 1.25 1.19 1.12 1.09 1.02 0.99 0.99 1.08 1.20 1.34 1.51 1.69 1.88 2.09 2.21 2.39 2.53 2.69 2.72 2.61 2.55 2.50 2.57 2.63 2.64 2.62 2.49 2.39 2.27 2.10 2.02 1.96
1.94 1.84 1.82 1.99 1.91 1.82 1.89 2.02 2.03 1.89 1.66 1.39 1.26 1.24 1.18 1.05 0.99 1.00 1.06 1.18 1.35 1.43 1.57 1.76 1.86 1.99 2.16 2.38 2.52 2.63 2.60 2.47 2.33 2.23 2.24 2.24 2.29 2.45 2.52 2.30 2.10 1.88 1.77 1.65
1.84 2.05 2.26 2.27 2.23 2.06 2.05 2.16 2.15 1.92 1.77 1.60 1.41 1.33 1.25 1.14 1.05 1.03 1.07 1.20 1.32 1.41 1.44 1.55 1.71 1.82 1.99 2.21 2.35 2.45 2.45 2.46 2.35 2.22 2.20 2.19 2.27 2.37 2.50 2.49 2.22 1.85 1.76 1.68
2.06 2.02 2.22 2.33 2.21 2.19 2.15 2.15 2.20 2.06 1.83 1.81 1.71 1.53 1.43 1.41 1.39 1.34 1.29 1.30 1.43 1.51 1.54 1.57 1.69 1.79 1.97 2.26 2.33 2.31 2.27 2.23 2.20 2.25 2.22 2.20 2.33 2.38 2.37 2.41 2.28 2.07 1.82 1.62
2.42 2.19 2.27 2.35 2.21 2.10 2.04 1.99 1.99 1.94 1.80 1.73 1.72 1.68 1.52 1.47 1.50 1.50 1.53 1.59 1.78 1.81 1.80 1.81 1.83 1.89 2.14 2.43 2.44 2.33 2.21 2.13 2.02 2.00 1.99 1.96 2.02 2.12 2.16 2.28 2.26 2.17 2.00 1.72
2.48 2.51 2.52 2.28 2.10 2.01 1.89 1.77 1.72 1.69 1.76 1.77 1.63 1.59 1.50 1.38 1.39 1.49 1.61 1.69 1.80 1.78 1.73 1.79 1.83 1.90 2.15 2.38 2.43 2.35 2.15 1.98 1.74 1.58 1.63 1.74 1.89 2.01 2.04 2.10 2.20 2.15 1.93 1.69
2.16 2.21 2.22 2.07 1.94 1.86 1.78 1.65 1.52 1.47 1.55 1.59 1.46 1.42 1.41 1.46 1.54 1.63 1.78 1.82 1.82 1.76 1.66 1.60 1.61 1.75 1.98 2.06 2.07 2.09 2.01 1.87 1.65 1.50 1.54 1.64 1.76 1.95 2.02 1.98 1.96 1.95 1.83 1.63
1.99 1.95 1.94 1.81 1.71 1.65 1.58 1.49 1.48 1.44 1.42 1.51 1.49 1.42 1.46 1.55 1.70 1.80 1.85 2.02 2.08 1.91 1.69 1.54 1.56 1.58 1.74 1.79 1.83 1.92 1.90 1.84 1.71 1.62 1.68 1.74 1.77 1.83 1.84 1.82 1.77 1.71 1.65 1.55
2.07 1.94 1.95 1.83 1.67 1.61 1.54 1.46 1.40 1.39 1.45 1.51 1.55 1.58 1.68 1.74 1.89 2.05 2.13 2.19 2.21 2.04 1.72 1.55 1.46 1.48 1.53 1.59 1.66 1.63 1.68 1.72 1.67 1.61 1.64 1.70 1.68 1.71 1.66 1.64 1.61 1.56 1.50 1.48
2.07 2.05 2.01 1.94 1.81 1.65 1.57 1.53 1.49 1.45 1.44 1.51 1.63 1.71 1.84 1.94 2.05 2.23 2.45 2.40 2.17 1.99 1.74 1.56 1.40 1.36 1.36 1.45 1.54 1.51 1.56 1.64 1.66 1.66 1.66 1.67 1.70 1.73 1.65 1.58 1.56 1.54 1.53 1.51
1.85 1.91 1.90 1.80 1.71 1.65 1.57 1.57 1.55 1.51 1.51 1.59 1.67 1.76 1.89 1.96 2.06 2.19 2.25 2.40 2.24 2.10 1.72 1.45 1.32 1.27 1.27 1.34 1.31 1.42 1.46 1.50 1.54 1.56 1.57 1.58 1.59 1.64 1.64 1.56 1.50 1.41 1.40 1.40
1.69 1.71 1.77 1.76 1.70 1.68 1.60 1.58 1.61 1.61 1.68 1.78 1.82 1.90 1.99 1.98 2.06 2.43 2.51 2.24 2.08 1.95 1.56 1.39 1.38 1.32 1.29 1.22 1.23 1.33 1.37 1.42 1.44 1.36 1.31 1.34 1.39 1.48 1.54 1.50 1.49 1.41 1.37 1.39
1.70 1.62 1.66 1.64 1.59 1.63 1.64 1.59 1.66 1.80 1.84 1.86 1.83 1.86 1.99 2.01 1.96 2.03 2.26 2.29 2.10 1.86 1.54 1.49 1.41 1.30 1.25 1.19 1.32 1.39 1.38 1.39 1.38 1.26 1.16 1.18 1.26 1.38 1.46 1.52 1.53 1.47 1.40 1.38
1.70 1.56 1.46 1.50 1.61 1.72 1.75 1.75 1.85 1.91 1.86 1.83 1.71 1.71 1.89 2.06 2.13 2.03 1.96 1.97 2.03 1.83 1.62 1.56 1.45 1.37 1.18 1.13 1.29 1.43 1.46 1.48 1.40 1.29 1.22 1.28 1.32 1.36 1.39 1.42 1.44 1.40 1.37 1.35
1.74 1.61 1.55 1.47 1.55 1.67 1.76 1.89 2.02 2.02 1.99 2.02 1.84 1.69 1.80 1.88 1.82 1.81 1.80 1.81 1.81 1.80 1.63 1.55 1.43 1.37 1.27 1.23 1.30 1.42 1.55 1.63 1.50 1.36 1.33 1.41 1.40 1.36 1.34 1.32 1.32 1.32 1.28 1.22
1.65 1.62 1.63 1.57 1.62 1.67 1.77 1.92 2.10 2.17 2.13 2.13 2.00 1.84 1.78 1.70 1.59 1.59 1.61 1.71 1.73 1.71 1.68 1.63 1.50 1.38 1.30 1.29 1.31 1.36 1.46 1.52 1.49 1.43 1.40 1.43 1.45 1.45 1.37 1.29 1.25 1.23 1.23 1.17

GEFSNGP_prec_meanprecacc_336.txt.gz
Total_Precipitation_Accumulation
0.08 0.17 0.25 0.26 0.23 0.20 0.17 0.16 0.29 0.34 0.48 0.57 0.73 0.72 0.75 0.74 0.68 0.65 0.75 0.71 0.65 0.65 0.74 0.76 0.81 0.82 0.82 0.84 0.87 1.08 1.63 1.95 1.93 1.81 1.80 1.77 1.75 1.88 1.96 2.01 2.05 2.29 2.44 2.51
0.12 0.15 0.18 0.18 0.21 0.20 0.15 0.14 0.13 0.21 0.39 0.45 0.71 0.85 0.83 0.84 0.80 0.75 0.73 0.69 0.66 0.59 0.70 0.81 0.89 0.92 0.93 0.99 1.05 1.18 1.56 1.88 1.87 1.75 1.69 1.62 1.69 1.83 1.96 2.04 2.22 2.41 2.40 2.40
0.17 0.20 0.19 0.27 0.23 0.19 0.18 0.18 0.18 0.29 0.44 0.46 0.55 0.71 0.81 0.84 0.80 0.73 0.74 0.67 0.68 0.72 0.81 1.01 0.95 0.99 1.07 1.00 1.07 1.26 1.63 1.89 1.95 1.85 1.79 1.74 1.67 1.84 2.03 2.26 2.45 2.54 2.48 2.43
0.22 0.27 0.39 0.31 0.24 0.24 0.27 0.32 0.33 0.35 0.40 0.44 0.58 0.66 0.80 0.97 0.84 0.70 0.72 0.75 0.84 0.83 0.90 0.99 0.98 1.04 1.11 1.12 1.17 1.34 1.63 1.89 2.02 1.97 1.94 2.01 2.02 2.08 2.27 2.52 2.70 2.72 2.67 2.56
0.32 0.37 0.44 0.41 0.33 0.36 0.41 0.47 0.49 0.52 0.46 0.53 0.60 0.72 0.89 0.84 0.82 0.87 0.88 0.89 0.94 1.04 1.09 1.18 1.17 1.13 1.20 1.36 1.42 1.48 1.57 1.85 2.06 2.13 2.17 2.14 2.18 2.45 2.66 2.82 2.86 2.81 2.88 2.79
0.46 0.55 0.63 0.61 0.46 0.39 0.48 0.82 0.65 0.66 0.65 0.59 0.64 0.93 1.08 0.89 0.81 0.81 0.94 1.05 1.05 1.12 1.19 1.23 1.26 1.33 1.40 1.54 1.70 1.83 1.92 2.08 2.37 2.57 2.70 2.73 2.79 2.86 2.93 3.03 2.98 3.00 2.91 2.85
0.68 0.81 0.76 0.59 0.52 0.47 0.89 1.24 0.91 0.87 0.85 0.76 0.88 1.01 1.02 0.88 0.83 0.81 0.85 0.98 1.08 1.13 1.23 1.30 1.33 1.48 1.76 1.91 2.01 2.19 2.35 2.43 2.69 3.04 3.23 3.18 3.21 3.11 3.03 3.02 3.02 3.02 2.90 2.80
0.91 1.16 1.24 0.69 0.63 0.99 1.24 1.05 1.06 1.09 1.06 0.99 0.97 1.03 1.04 1.01 0.88 0.85 0.87 0.94 1.06 1.14 1.22 1.41 1.68 1.88 2.16 2.35 2.40 2.49 2.65 2.95 3.19 3.37 3.20 3.10 3.29 3.19 3.20 3.25 3.21 3.09 2.99 2.89
1.19 1.42 1.21 0.84 0.97 1.15 1.13 1.11 1.14 1.13 1.08 0.98 0.94 1.10 1.06 1.00 1.00 0.92 0.92 0.95 1.03 1.13 1.31 1.53 1.84 2.24 2.49 2.57 2.77 2.77 2.83 3.05 3.13 3.19 3.30 3.44 3.52 3.40 3.34 3.32 3.24 3.04 2.94 2.75
1.49 1.55 1.31 1.15 1.14 1.10 1.12 1.14 1.11 1.04 1.01 1.02 0.99 1.01 1.03 1.00 1.02 0.99 0.97 1.04 1.09 1.20 1.41 1.72 2.03 2.38 2.54 2.60 2.64 2.67 2.70 2.74 2.86 3.04 3.17 3.30 3.53 3.53 3.40 3.22 3.11 3.02 2.97 2.84
2.00 2.07 1.91 1.76 1.50 1.32 1.27 1.21 1.24 1.20 1.13 1.10 1.06 1.03 1.01 1.05 1.05 1.04 1.03 1.13 1.23 1.33 1.45 1.62 1.91 2.21 2.36 2.52 2.61 2.77 2.80 2.71 2.63 2.67 2.80 2.95 3.08 3.16 3.10 3.06 2.95 2.82 2.65 2.59
2.31 2.05 2.02 2.16 1.88 1.63 1.57 1.55 1.55 1.51 1.46 1.34 1.26 1.21 1.15 1.11 1.05 1.01 1.01 1.09 1.22 1.35 1.52 1.71 1.91 2.12 2.25 2.44 2.58 2.74 2.75 2.63 2.58 2.53 2.60 2.65 2.66 2.63 2.51 2.41 2.29 2.13 2.05 1.99
1.95 1.84 1.82 1.99 1.92 1.83 1.90 2.03 2.04 1.90 1.67 1.40 1.28 1.25 1.20 1.07 1.00 1.01 1.07 1.19 1.36 1.44 1.58 1.77 1.87 2.00 2.17 2.40 2.57 2.70 2.66 2.49 2.35 2.24 2.26 2.25 2.30 2.46 2.53 2.31 2.12 1.91 1.79 1.67
1.85 2.05 2.26 2.27 2.23 2.06 2.06 2.17 2.16 1.93 1.78 1.61 1.41 1.34 1.26 1.15 1.06 1.03 1.08 1.20 1.33 1.42 1.44 1.55 1.71 1.83 2.00 2.23 2.39 2.49 2.48 2.48 2.36 2.23 2.21 2.20 2.28 2.38 2.52 2.51 2.23 1.86 1.78 1.70
2.07 2.03 2.23 2.33 2.21 2.19 2.15 2.15 2.21 2.07 1.84 1.82 1.72 1.54 1.44 1.42 1.40 1.35 1.30 1.32 1.44 1.51 1.55 1.58 1.70 1.80 1.98 2.27 2.35 2.32 2.27 2.24 2.21 2.26 2.23 2.21 2.34 2.38 2.37 2.42 2.30 2.08 1.83 1.63
2.43 2.19 2.28 2.35 2.22 2.11 2.04 2.00 2.00 1.95 1.81 1.74 1.73 1.69 1.53 1.49 1.52 1.52 1.55 1.61 1.79 1.82 1.81 1.83 1.85 1.90 2.16 2.44 2.45 2.33 2.21 2.14 2.03 2.01 2.00 1.96 2.02 2.13 2.17 2.29 2.28 2.19 2.02 1.73
2.49 2.53 2.55 2.30 2.12 2.03 1.90 1.78 1.74 1.71 1.77 1.79 1.65 1.61 1.51 1.40 1.41 1.51 1.64 1.72 1.83 1.81 1.76 1.82 1.85 1.93 2.17 2.40 2.44 2.36 2.15 1.99 1.75 1.59 1.63 1.75 1.89 2.01 2.04 2.11 2.22 2.17 1.95 1.71
2.18 2.22 2.26 2.11 1.97 1.89 1.81 1.67 1.55 1.49 1.57 1.61 1.48 1.44 1.43 1.48 1.57 1.67 1.81 1.85 1.85 1.79 1.68 1.62 1.64 1.78 2.00 2.08 2.08 2.11 2.03 1.88 1.66 1.52 1.55 1.64 1.77 1.96 2.03 1.99 1.97 1.96 1.85 1.65
2.02 1.98 1.98 1.86 1.74 1.67 1.61 1.52 1.51 1.47 1.45 1.55 1.52 1.46 1.49 1.58 1.74 1.84 1.89 2.05 2.10 1.94 1.72 1.57 1.59 1.61 1.75 1.80 1.84 1.94 1.91 1.85 1.72 1.63 1.69 1.75 1.78 1.84 1.85 1.82 1.78 1.71 1.65 1.56
2.11 1.99 2.00 1.87 1.69 1.63 1.57 1.48 1.42 1.40 1.47 1.53 1.57 1.61 1.71 1.76 1.92 2.09 2.16 2.22 2.22 2.06 1.75 1.59 1.48 1.49 1.55 1.60 1.67 1.64 1.69 1.73 1.68 1.62 1.65 1.70 1.68 1.72 1.67 1.66 1.62 1.57 1.51 1.50
2.13 2.11 2.07 1.99 1.84 1.67 1.59 1.55 1.51 1.47 1.45 1.53 1.65 1.73 1.86 1.96 2.07 2.25 2.47 2.42 2.19 2.02 1.77 1.59 1.41 1.37 1.37 1.46 1.54 1.52 1.57 1.64 1.67 1.67 1.67 1.68 1.70 1.74 1.66 1.59 1.57 1.56 1.55 1.53
1.89 1.95 1.95 1.86 1.76 1.67 1.59 1.59 1.57 1.54 1.53 1.60 1.68 1.78 1.90 1.98 2.08 2.20 2.26 2.42 2.26 2.12 1.74 1.47 1.33 1.28 1.28 1.35 1.31 1.42 1.46 1.51 1.55 1.57 1.58 1.59 1.60 1.65 1.66 1.57 1.51 1.43 1.42 1.43
1.72 1.73 1.80 1.80 1.74 1.70 1.61 1.59 1.63 1.63 1.70 1.80 1.83 1.92 2.01 2.00 2.07 2.44 2.52 2.26 2.10 1.97 1.58 1.41 1.40 1.33 1.29 1.22 1.24 1.33 1.38 1.42 1.45 1.36 1.31 1.35 1.41 1.50 1.56 1.52 1.51 1.42 1.39 1.41
1.72 1.64 1.68 1.66 1.60 1.65 1.66 1.61 1.68 1.81 1.86 1.88 1.84 1.88 2.01 2.02 1.97 2.04 2.27 2.31 2.12 1.89 1.56 1.51 1.43 1.31 1.26 1.19 1.33 1.39 1.39 1.40 1.39 1.27 1.17 1.19 1.28 1.40 1.49 1.54 1.55 1.50 1.43 1.41
1.72 1.58 1.48 1.52 1.63 1.74 1.76 1.77 1.86 1.92 1.87 1.84 1.72 1.73 1.91 2.08 2.14 2.05 1.98 1.98 2.05 1.87 1.66 1.60 1.49 1.40 1.20 1.14 1.30 1.43 1.46 1.48 1.41 1.30 1.23 1.30 1.33 1.38 1.41 1.44 1.47 1.43 1.40 1.38
1.77 1.63 1.57 1.49 1.57 1.69 1.77 1.89 2.03 2.03 2.00 2.02 1.85 1.70 1.82 1.90 1.84 1.83 1.82 1.83 1.84 1.85 1.68 1.59 1.46 1.40 1.28 1.24 1.30 1.43 1.56 1.64 1.51 1.37 1.35 1.43 1.41 1.37 1.37 1.34 1.34 1.35 1.31 1.25
1.68 1.64 1.65 1.59 1.64 1.68 1.78 1.93 2.12 2.18 2.13 2.13 2.01 1.85 1.79 1.72 1.61 1.61 1.64 1.74 1.76 1.76 1.73 1.67 1.52 1.41 1.32 1.30 1.32 1.36 1.47 1.53 1.50 1.44 1.41 1.45 1.47 1.47 1.39 1.31 1.27 1.25 1.25 1.19

GEFSNGP_prec_meanprecacc_342.txt.gz
Total_Precipitation_Accumulation
0.09 0.17 0.25 0.26 0.24 0.21 0.17 0.16 0.29 0.34 0.48 0.57 0.73 0.72 0.76 0.74 0.68 0.65 0.75 0.71 0.66 0.66 0.75 0.76 0.82 0.83 0.83 0.85 0.88 1.09 1.64 1.97 1.96 1.82 1.81 1.77 1.76 1.89 1.97 2.03 2.05 2.29 2.44 2.52
0.12 0.15 0.18 0.18 0.21 0.20 0.15 0.14 0.13 0.21 0.39 0.45 0.71 0.85 0.83 0.84 0.81 0.75 0.75 0.70 0.67 0.60 0.70 0.82 0.90 0.93 0.94 1.00 1.05 1.19 1.57 1.90 1.89 1.77 1.71 1.63 1.70 1.84 1.97 2.05 2.23 2.41 2.41 2.40
0.17 0.20 0.19 0.27 0.23 0.19 0.18 0.18 0.18 0.29 0.44 0.46 0.55 0.71 0.81 0.84 0.81 0.74 0.76 0.70 0.69 0.73 0.83 1.02 0.97 1.01 1.08 1.02 1.08 1.28 1.65 1.91 1.98 1.89 1.81 1.77 1.69 1.86 2.05 2.27 2.46 2.55 2.49 2.43
0.22 0.27 0.39 0.31 0.24 0.24 0.27 0.32 0.33 0.35 0.40 0.45 0.58 0.66 0.80 0.97 0.84 0.71 0.74 0.77 0.85 0.85 0.92 1.01 0.99 1.05 1.12 1.14 1.20 1.37 1.67 1.93 2.06 2.00 1.96 2.03 2.03 2.10 2.29 2.53 2.71 2.73 2.68 2.57
0.32 0.37 0.44 0.41 0.33 0.36 0.41 0.47 0.49 0.52 0.46 0.53 0.60 0.73 0.89 0.84 0.82 0.88 0.89 0.90 0.96 1.06 1.11 1.19 1.19 1.15 1.22 1.38 1.45 1.51 1.61 1.89 2.09 2.15 2.18 2.15 2.20 2.46 2.68 2.84 2.87 2.82 2.89 2.80
0.46 0.55 0.63 0.62 0.46 0.39 0.48 0.83 0.65 0.66 0.65 0.60 0.64 0.93 1.08 0.89 0.81 0.82 0.95 1.06 1.07 1.14 1.20 1.24 1.28 1.35 1.43 1.56 1.73 1.86 1.94 2.10 2.38 2.58 2.71 2.74 2.80 2.88 2.94 3.05 3.00 3.01 2.92 2.86
0.68 0.81 0.76 0.60 0.52 0.47 0.90 1.24 0.91 0.88 0.85 0.76 0.89 1.01 1.02 0.89 0.85 0.83 0.86 1.00 1.09 1.14 1.24 1.32 1.34 1.51 1.80 1.96 2.05 2.22 2.36 2.44 2.70 3.05 3.23 3.19 3.22 3.12 3.04 3.03 3.03 3.03 2.91 2.81
0.91 1.17 1.25 0.69 0.63 0.99 1.25 1.05 1.06 1.09 1.06 0.99 0.98 1.04 1.05 1.03 0.90 0.86 0.88 0.95 1.07 1.15 1.24 1.43 1.70 1.90 2.20 2.38 2.43 2.50 2.66 2.96 3.20 3.38 3.21 3.11 3.30 3.20 3.21 3.27 3.23 3.11 3.02 2.92
1.19 1.42 1.21 0.85 0.97 1.15 1.14 1.12 1.16 1.13 1.09 0.99 0.96 1.12 1.06 1.01 1.02 0.93 0.92 0.96 1.05 1.15 1.34 1.56 1.87 2.27 2.51 2.58 2.78 2.79 2.84 3.06 3.14 3.20 3.31 3.45 3.53 3.41 3.35 3.34 3.26 3.07 2.98 2.82
1.49 1.55 1.31 1.15 1.15 1.10 1.13 1.15 1.11 1.05 1.01 1.02 1.00 1.02 1.03 1.01 1.03 0.99 0.98 1.06 1.11 1.23 1.44 1.75 2.05 2.40 2.57 2.62 2.65 2.68 2.71 2.75 2.87 3.05 3.18 3.30 3.54 3.54 3.41 3.23 3.13 3.03 2.99 2.86
2.00 2.07 1.92 1.76 1.51 1.33 1.28 1.21 1.25 1.21 1.13 1.11 1.07 1.04 1.02 1.05 1.05 1.05 1.05 1.16 1.26 1.37 1.48 1.65 1.92 2.23 2.38 2.53 2.61 2.77 2.81 2.73 2.65 2.68 2.81 2.96 3.09 3.18 3.11 3.08 2.97 2.84 2.66 2.60
2.31 2.05 2.02 2.16 1.88 1.63 1.57 1.56 1.56 1.53 1.47 1.35 1.27 1.22 1.15 1.12 1.05 1.03 1.03 1.11 1.24 1.37 1.54 1.72 1.92 2.13 2.26 2.45 2.59 2.74 2.76 2.65 2.59 2.54 2.61 2.66 2.67 2.64 2.52 2.43 2.31 2.14 2.06 2.00
1.96 1.86 1.83 1.99 1.92 1.83 1.91 2.05 2.06 1.92 1.68 1.40 1.28 1.26 1.21 1.08 1.01 1.03 1.09 1.21 1.38 1.46 1.59 1.78 1.88 2.01 2.18 2.40 2.58 2.71 2.67 2.51 2.36 2.25 2.27 2.26 2.31 2.47 2.54 2.32 2.13 1.92 1.81 1.69
1.87 2.08 2.28 2.28 2.23 2.07 2.07 2.18 2.17 1.93 1.79 1.61 1.42 1.34 1.26 1.16 1.07 1.06 1.11 1.22 1.35 1.43 1.45 1.56 1.72 1.83 2.01 2.23 2.39 2.50 2.49 2.49 2.37 2.24 2.22 2.21 2.29 2.39 2.53 2.52 2.24 1.87 1.78 1.71
2.09 2.05 2.24 2.34 2.22 2.20 2.16 2.15 2.21 2.08 1.85 1.83 1.73 1.54 1.45 1.43 1.41 1.36 1.32 1.34 1.46 1.53 1.56 1.59 1.71 1.81 1.98 2.28 2.35 2.33 2.29 2.25 2.22 2.28 2.25 2.22 2.35 2.39 2.38 2.43 2.30 2.09 1.84 1.65
2.45 2.22 2.30 2.36 2.23 2.11 2.05 2.01 2.01 1.96 1.82 1.75 1.74 1.70 1.54 1.50 1.53 1.53 1.57 1.63 1.81 1.84 1.82 1.84 1.86 1.91 2.16 2.45 2.46 2.35 2.23 2.16 2.05 2.03 2.01 1.98 2.04 2.14 2.18 2.30 2.29 2.20 2.03 1.74
2.51 2.54 2.56 2.32 2.14 2.04 1.92 1.80 1.75 1.73 1.79 1.81 1.67 1.62 1.53 1.41 1.42 1.53 1.65 1.73 1.84 1.82 1.77 1.83 1.86 1.94 2.19 2.42 2.47 2.38 2.17 2.01 1.77 1.61 1.65 1.76 1.91 2.03 2.06 2.12 2.23 2.18 1.96 1.72
2.22 2.24 2.28 2.13 1.98 1.90 1.83 1.69 1.58 1.52 1.60 1.63 1.50 1.46 1.45 1.49 1.59 1.68 1.82 1.86 1.86 1.80 1.69 1.64 1.66 1.81 2.02 2.10 2.11 2.13 2.05 1.91 1.69 1.54 1.57 1.66 1.78 1.97 2.04 2.00 1.98 1.97 1.86 1.67
2.07 2.00 2.01 1.88 1.76 1.70 1.65 1.56 1.56 1.50 1.48 1.58 1.55 1.48 1.52 1.60 1.76 1.86 1.91 2.07 2.12 1.95 1.73 1.58 1.61 1.62 1.77 1.82 1.87 1.97 1.94 1.87 1.74 1.66 1.71 1.76 1.80 1.85 1.86 1.83 1.79 1.72 1.66 1.57
2.16 2.03 2.03 1.90 1.72 1.67 1.61 1.53 1.45 1.42 1.49 1.55 1.60 1.64 1.73 1.78 1.94 2.10 2.18 2.23 2.23 2.07 1.76 1.60 1.49 1.51 1.56 1.61 1.68 1.65 1.71 1.74 1.69 1.64 1.67 1.72 1.70 1.73 1.68 1.67 1.63 1.58 1.52 1.51
2.16 2.15 2.10 2.01 1.87 1.70 1.61 1.57 1.53 1.48 1.47 1.55 1.67 1.75 1.87 1.97 2.08 2.26 2.48 2.43 2.19 2.02 1.78 1.60 1.42 1.38 1.38 1.47 1.56 1.54 1.59 1.66 1.68 1.69 1.69 1.70 1.72 1.75 1.68 1.61 1.59 1.58 1.57 1.55
1.90 1.96 1.97 1.89 1.78 1.69 1.60 1.60 1.59 1.55 1.54 1.61 1.70 1.79 1.91 1.98 2.08 2.21 2.27 2.42 2.26 2.13 1.75 1.48 1.34 1.29 1.29 1.36 1.32 1.43 1.47 1.51 1.56 1.58 1.60 1.61 1.63 1.67 1.67 1.59 1.54 1.47 1.45 1.45
1.73 1.75 1.82 1.82 1.75 1.71 1.62 1.60 1.64 1.64 1.71 1.81 1.85 1.94 2.03 2.00 2.07 2.44 2.53 2.26 2.10 1.98 1.59 1.42 1.41 1.34 1.30 1.23 1.24 1.34 1.38 1.43 1.46 1.37 1.32 1.36 1.43 1.51 1.58 1.55 1.54 1.45 1.40 1.43
1.74 1.66 1.69 1.68 1.62 1.66 1.67 1.61 1.68 1.82 1.87 1.89 1.86 1.90 2.03 2.04 1.98 2.04 2.27 2.31 2.13 1.90 1.57 1.52 1.45 1.33 1.27 1.20 1.34 1.40 1.39 1.40 1.40 1.28 1.18 1.20 1.29 1.41 1.50 1.56 1.58 1.52 1.45 1.43
1.74 1.60 1.50 1.53 1.64 1.75 1.77 1.78 1.87 1.93 1.88 1.85 1.74 1.75 1.93 2.09 2.15 2.05 1.98 1.99 2.06 1.88 1.66 1.61 1.50 1.41 1.21 1.15 1.31 1.44 1.47 1.49 1.42 1.31 1.25 1.31 1.34 1.39 1.42 1.45 1.48 1.44 1.42 1.40
1.78 1.65 1.59 1.51 1.58 1.70 1.78 1.91 2.05 2.04 2.02 2.06 1.87 1.72 1.83 1.90 1.84 1.83 1.82 1.84 1.85 1.86 1.69 1.60 1.47 1.41 1.30 1.26 1.32 1.44 1.57 1.65 1.52 1.38 1.36 1.44 1.42 1.38 1.38 1.36 1.36 1.36 1.32 1.26
1.69 1.65 1.66 1.60 1.64 1.69 1.79 1.93 2.13 2.19 2.14 2.15 2.02 1.86 1.80 1.72 1.61 1.62 1.65 1.76 1.78 1.78 1.75 1.68 1.54 1.42 1.34 1.32 1.34 1.38 1.48 1.55 1.52 1.46 1.42 1.46 1.48 1.48 1.41 1.33 1.29 1.26 1.26 1.20